Fort Stockton, TX

1:24 PM CDT on April 27, 2017 (GMT -0500)
Fort Stockton-Pecos County

Weather History for KFST - March, 2014

Change the Weather History Date:

Sunday, March 23, 2014

  Actual Average Record
Temperature  
Mean Temperature 48 °F -  
Max Temperature 55 °F 70 °F 93 °F (2009)
Min Temperature 42 °F 46 °F 32 °F (2006)
Degree Days  
Heating Degree Days 16    
Moisture  
Dew Point 29 °F    
Average Humidity 49    
Maximum Humidity 68    
Minimum Humidity 34    
Precipitation  
Precipitation 0.00 in - - ()
Sea Level Pressure  
Sea Level Pressure 30.19 in    
Wind  
Wind Speed 11 mph (ENE)    
Max Wind Speed 18 mph    
Max Gust Speed 24 mph    
Visibility 10 miles    
Events      
Averages and records for this station are not official NWS values.
T = Trace of Precipitation, MM = Missing Value Source: NWS Daily Summary

Daily Weather History Graph

Daily Weather History Graph

Search for Another Location

Airport or City:

Trip Planner

Search our weather history database for the weather conditions in past years. The results will help you decide how hot, cold, wet, or windy it might be!

Date:

Astronomy

Mar. 23, 2014 Rise Set
Actual Time 7:51 AM CDT 8:05 PM CDT
Civil Twilight 7:27 AM CDT 8:29 PM CDT
Nautical Twilight 6:59 AM CDT 8:57 PM CDT
Astronomical Twilight 6:30 AM CDT 9:26 PM CDT
Moon 2:05 AM CDT (3/23) 12:54 PM CDT (3/23)
Length of Visible Light 13h 01m
Length of Day
12h 13m
Waning Gibbous, 54% of the Moon is Illuminated
Mar 23
Waning Gibbous
Mar 23
Last Quarter
Mar 30
New
Apr 7
First Quarter
Apr 15
Full

Hourly Weather History & Observations

Time (CDT) Temp. Windchill Dew Point Humidity Pressure Visibility Wind Dir Wind Speed Gust Speed Precip Events Conditions
12:53 AM 55.0 °F - 32.0 °F 42% 29.97 in 10.0 mi East 9.2 mph - N/A   Clear
1:53 AM 54.0 °F - 34.0 °F 47% 29.97 in 10.0 mi ESE 11.5 mph - N/A   Clear
2:53 AM 51.1 °F - 34.0 °F 52% 29.99 in 10.0 mi East 8.1 mph - N/A   Clear
3:53 AM 51.1 °F - 35.1 °F 54% 30.00 in 10.0 mi East 10.4 mph - N/A   Clear
4:53 AM 48.9 °F - 36.0 °F 61% 30.02 in 10.0 mi East 18.4 mph - N/A   Clear
5:53 AM 45.0 °F 38.5 °F 33.1 °F 63% 30.09 in 10.0 mi NE 13.8 mph 24.2 mph N/A   Clear
6:08 AM 45.0 °F 37.9 °F 33.1 °F 63% 30.18 in 10.0 mi NE 16.1 mph 20.7 mph N/A   Mostly Cloudy
6:53 AM 45.0 °F 38.5 °F 33.1 °F 63% 30.14 in 10.0 mi NE 13.8 mph - N/A   Overcast
7:53 AM 44.1 °F 37.7 °F 34.0 °F 68% 30.20 in 10.0 mi NE 12.7 mph - N/A   Overcast
8:53 AM 44.1 °F 37.1 °F 30.9 °F 60% 30.26 in 10.0 mi NNE 15.0 mph - N/A   Overcast
9:41 AM 44.1 °F 37.7 °F 28.0 °F 53% 30.36 in 10.0 mi NNE 12.7 mph - N/A   Overcast
9:53 AM 43.0 °F 35.4 °F 26.1 °F 51% 30.31 in 10.0 mi NNE 16.1 mph - N/A   Overcast
10:53 AM 42.1 °F 33.9 °F 23.0 °F 47% 30.33 in 10.0 mi North 17.3 mph - N/A   Overcast
11:53 AM 43.0 °F 37.7 °F 26.1 °F 51% 30.33 in 10.0 mi NNE 9.2 mph - N/A   Overcast
12:04 PM 43.0 °F 38.8 °F 27.0 °F 53% 30.39 in 10.0 mi NE 6.9 mph - N/A   Overcast
12:53 PM 44.1 °F 39.5 °F 26.1 °F 49% 30.33 in 10.0 mi NNE 8.1 mph - N/A   Overcast
1:53 PM 44.1 °F 38.6 °F 26.1 °F 49% 30.30 in 10.0 mi North 10.4 mph - N/A   Overcast
2:53 PM 45.0 °F 40.1 °F 26.1 °F 48% 30.27 in 10.0 mi ENE 9.2 mph - N/A   Overcast
3:10 PM 46.9 °F - 26.1 °F 44% 30.31 in 10.0 mi Variable 6.9 mph - N/A   Overcast
3:53 PM 46.9 °F - 26.1 °F 44% 30.23 in 10.0 mi ESE 6.9 mph - N/A   Overcast
4:53 PM 50.0 °F - 25.0 °F 38% 30.18 in 10.0 mi Variable 4.6 mph - N/A   Overcast
5:53 PM 53.1 °F - 25.0 °F 34% 30.15 in 10.0 mi ENE 5.8 mph - N/A   Clear
6:53 PM 53.1 °F - 27.0 °F 37% 30.15 in 10.0 mi ESE 6.9 mph - N/A   Clear
7:53 PM 52.0 °F - 25.0 °F 35% 30.16 in 10.0 mi East 5.8 mph - N/A   Clear
8:53 PM 50.0 °F - 26.1 °F 39% 30.17 in 10.0 mi ESE 4.6 mph - N/A   Clear
9:53 PM 48.0 °F - 27.0 °F 44% 30.17 in 10.0 mi ESE 5.8 mph - N/A   Clear
10:53 PM 48.9 °F - 27.0 °F 43% 30.17 in 10.0 mi SE 6.9 mph - N/A   Clear
11:53 PM 48.0 °F - 28.0 °F 46% 30.17 in 10.0 mi SE 8.1 mph - N/A   Clear